Location: Bay Shore Mobile Home Park
(38.5762°N, 75.0841°W)
Time: 08:14:26
(UTC+00:00)

Thor Agena Rocket - Pass Details

Date: 15 November 2025
Orbit: 755 x 802 km, 99.1° (Epoch: 04 December)

Event Time Altitude Azimuth Distance (km) Brightness Sun altitude
Rises 22:19:30 0° 169° (S) 3,287 6.9 -6.8°
Reaches altitude 10° 22:21:49 10° 171° (S) 2,365 6.2 -7.2°
Maximum altitude 22:27:03 76° 257° (WSW) 831 3.9 -8.2°
Drops below altitude 10° 22:32:20 10° 343° (NNW) 2,385 6.1 -9.2°
Sets 22:34:41 0° 345° (NNW) 3,318 6.8 -9.6°
